Location: B?ogocice
(50.2413°N, 20.2361°E)
Time: 14:02:33
(UTC+00:00)

Resurs 1-4 Rocket - Pass Details

Date: 15 June 2024
Orbit: 799 x 812 km, 98.7° (Epoch: 15 July)

Event Time Altitude Azimuth Distance (km) Brightness Sun altitude
Rises 00:50:27 0° 15° (NNE) 3,325 7.0 -10.9°
Reaches altitude 10° 00:52:47 10° 15° (NNE) 2,392 5.9 -10.8°
Maximum altitude 00:58:05 89° 104° (ESE) 812 2.1 -10.3°
Enters shadow 01:03:07 11° 197° (SSW) 2,284 3.8 -9.9°
